Overview Statistics Trail Chart Weather Telemetry Raw packets
 

This is the latest recevied weather packets stored in our database for station/object VE8SKI. If no packets are shown the sender has not sent any weather packets the latest 10 day(s).

<< 75 76 77 78 79 80 81 >>
Time Temp. Humidity Pressure Rain* Wind** Luminosity Snow
1777564568 5.56° C 61% 1015.7 hPa 0 mm 1.79 m/s, 198° - -
1777564265 5.56° C 62% 1015.8 hPa 0 mm 1.79 m/s, 224° - -
1777563966 5.56° C 62% 1015.9 hPa 0 mm 1.34 m/s, 232° - -
1777563666 5° C 63% 1015.9 hPa 0 mm 1.79 m/s, 215° - -
1777563366 5° C 63% 1016 hPa 0 mm 1.34 m/s, 298° - -
1777563067 4.44° C 64% 1016.1 hPa 0 mm 2.68 m/s, 198° - -
1777562767 4.44° C 63% 1016.3 hPa 0 mm 1.79 m/s, 240° - -
1777562465 4.44° C 64% 1016.5 hPa 0 mm 1.79 m/s, 166° - -
1777562165 4.44° C 65% 1016.5 hPa 0 mm 1.79 m/s, 257° - -
1777561866 3.89° C 64% 1016.7 hPa 0 mm 1.79 m/s, 210° - -
1777561566 3.89° C 65% 1016.8 hPa 0 mm 1.34 m/s, 191° - -
1777561267 3.33° C 66% 1016.9 hPa 0 mm 2.24 m/s, 214° - -
1777560967 3.89° C 65% 1017 hPa 0 mm 2.24 m/s, 156° - -
1777560665 3.89° C 66% 1017.1 hPa 0 mm 0 m/s - -
1777560365 3.33° C 65% 1017.3 hPa 0 mm 1.79 m/s, 231° - -
1777560065 3.33° C 66% 1017.4 hPa 0 mm 1.34 m/s, 174° - -
1777559766 3.33° C 65% 1017.6 hPa 0 mm 0.89 m/s, 207° - -
1777559466 3.33° C 65% 1017.7 hPa 0 mm 0.89 m/s, 176° - -
1777559166 3.89° C 63% 1017.8 hPa 0 mm 1.34 m/s, 226° - -
1777558864 5° C 60% 1018 hPa 0 mm 0.45 m/s, 197° - -
1777558565 4.44° C 62% 1018.2 hPa 0 mm 0 m/s - -
1777558265 3.89° C 62% 1018.4 hPa 0 mm 0 m/s - -
1777557965 3.89° C 64% 1018.4 hPa 0 mm 0 m/s - -
1777557666 3.33° C 64% 1018.5 hPa 0 mm 0.45 m/s, 236° - -
1777557366 3.89° C 64% 1018.6 hPa 0 mm 0.45 m/s, 188° - -

* Rain latest hour (hover to see other rain measurements)
** Current wind speed in m/s (hover to see current wind gust speed)